Flag for Germany Weather past 2 weeks in Kornwestheim, Baden-Württemberg, Germany

Now
72 °F

Sunny.


Feels Like: 77 °F
Forecast: 53 / 61 °F
Wind: 7 mph from North

Location: Stuttgart-Echterdingen

Current Time: Aug 30, 2014 at 4:42:19 PM

Latest Report: Aug 30, 2014 at 4:20 PM


Visibility: 10 mi

Pressure: 30.07 "Hg

Humidity: 53%

Dew point: 54 °F

Location of KornwestheimLocation

Historic Weather in Kornwestheim — Graph

°F

Kornwestheim temperature yesterday

Maximum temperature yesterday: 72 °F (at 1:50 PM)
Minimum temperature yesterday: 55 °F (at 5:20 AM)
Average temperature yesterday: 63 °F

Past Weeks' High & Low Weather Summary

 TemperatureHumidityPressure
High73 °F (Aug 28, 3:20 PM)100% (Aug 25, 6:20 AM)30.18 "Hg (Aug 25, 6:20 AM)
Low45 °F (Aug 25, 5:20 AM)38% (Aug 22, 4:20 PM)29.68 "Hg (Aug 26, 5:50 AM)
Average59 °F75%30.01 "Hg
* Reported Aug 15 4:20 PM — Aug 30 3:50 PM, Kornwestheim, Weather by CustomWeather, © 2014

Note: Actual official high and low records may vary slightly from our data, if they occured in-between our weather recording intervals... More about our weather records

Advertising

Kornwestheim weather history for previous 24 hours

 ConditionsComfort  
Time TempWeatherWind HumidityBarometerVisibility
3:50 PM
Aug 30
70 °FScattered clouds.2 mph60%30.07 "HgN/A
3:20 PM72 °FScattered clouds.5 mph53%30.07 "HgN/A
2:50 PM73 °FScattered clouds.3 mph57%30.09 "HgN/A
2:20 PM70 °FScattered clouds.2 mph57%30.09 "HgN/A
1:50 PM68 °FScattered clouds.7 mph60%30.09 "HgN/A
1:20 PM72 °FScattered clouds.2 mph61%30.12 "HgN/A
12:50 PM68 °FScattered clouds.5 mph60%30.12 "HgN/A
12:20 PM68 °FBroken clouds.2 mph60%30.12 "HgN/A
11:50 AM68 °FBroken clouds.5 mph64%30.12 "HgN/A
11:20 AM68 °FBroken clouds.5 mph60%30.12 "HgN/A
10:50 AM66 °FScattered clouds.3 mph64%30.12 "HgN/A
10:20 AM66 °FScattered clouds.3 mph64%30.12 "HgN/A
9:50 AM64 °FScattered clouds.6 mph68%30.12 "HgN/A
9:20 AM64 °FScattered clouds.6 mph73%30.12 "HgN/A
8:50 AM63 °FScattered clouds.5 mph83%30.12 "HgN/A
8:20 AM61 °FFog.3 mph88%30.12 "HgN/A
7:50 AM59 °FFog.5 mph94%30.12 "HgN/A
7:20 AM57 °FFog.5 mph94%30.12 "HgN/A
6:50 AM59 °FFog.3 mph94%30.09 "HgN/A
6:20 AM59 °FFog.2 mph94%30.09 "HgN/A
5:50 AM61 °FPassing clouds.3 mph88%30.09 "HgN/A
5:20 AM61 °FPassing clouds.2 mph88%30.09 "HgN/A
4:50 AM61 °FPassing clouds.1 mph88%30.09 "HgN/A
4:20 AM61 °FPassing clouds.3 mph94%30.09 "HgN/A
3:50 AM61 °FPartly cloudy.2 mph94%30.09 "HgN/A
3:20 AM61 °FPartly cloudy.5 mph94%30.09 "HgN/A
2:50 AM61 °FPartly cloudy.2 mph94%30.09 "HgN/A
2:20 AM61 °FPartly cloudy.1 mph94%30.09 "HgN/A
1:50 AM61 °FSprinkles. Partly cloudy.5 mph88%30.09 "HgN/A
1:20 AM61 °FPassing clouds.3 mph88%30.09 "HgN/A
12:50 AM61 °FSprinkles. Partly cloudy.5 mph88%30.09 "HgN/A
12:20 AM61 °FPassing clouds.3 mph88%30.09 "HgN/A
11:50 PM
Aug 29
61 °FPassing clouds.3 mph94%30.09 "HgN/A
11:20 PM61 °FSprinkles. Passing clouds.2 mph94%30.07 "HgN/A
9:20 PM64 °FPartly cloudy.1 mph88%30.07 "HgN/A
8:50 PM64 °FBroken clouds.2 mph88%30.07 "HgN/A
8:20 PM64 °FBroken clouds.2 mph88%30.04 "HgN/A
7:50 PM66 °FBroken clouds.1 mph83%30.04 "HgN/A
7:20 PM66 °FScattered showers. Broken clouds.3 mph83%30.04 "HgN/A
6:50 PM68 °FScattered showers. Broken clouds.5 mph78%30.04 "HgN/A
6:20 PM68 °FScattered showers. Broken clouds.5 mph78%30.04 "HgN/A
5:50 PM70 °FBroken clouds.3 mph69%30.04 "HgN/A
5:20 PM72 °FBroken clouds.5 mph69%30.04 "HgN/A
4:50 PM72 °FBroken clouds.5 mph69%30.04 "HgN/A
4:20 PM70 °FBroken clouds.2 mph69%30.04 "HgN/A
Weather by CustomWeather, © 2014

See weather overviewHow to use our weather pages